Location: Newark
(34.1333°N, 7.9667°W)
Time: 14:35:02
(UTC+00:00)

Envisat - Visible Passes

Search period start: 09 April 2020 00:00
Search period end: 19 April 2020 00:00
Orbit: 764 x 766 km, 98.1° (Epoch: 09 April)

Date Brightness Start Highest point End Pass type
(mag) Time Alt. Az. Time Alt. Az. Time Alt. Az.
09 Apr 5.9 19:22:38 10° SW 19:26:12 19° W 19:29:48 10° NW visible
14 Apr 6.1 19:38:06 10° WSW 19:40:29 13° W 19:42:52 10° WNW visible
17 Apr 5.9 19:25:45 10° SW 19:29:05 17° W 19:32:24 10° NW visible
